Regional Weather Roundup
Issued by NWS

Home | Current Version | Previous Version | Graphics & Text | Print | Product List | Glossary On
Versions: 1 2 3 4 5 6 7 8 9 10 11 12 13 14 15 16 17 18 19 20 21 22 23 24 25 26 27 28 29 30 31 32 33 34 35 36 37 38 39 40 41 42 43 44 45 46 47 48 49 50
000
ASUS45 KBOU 280907
RWRCO

WEATHER ROUNDUP FOR COLORADO
NATIONAL WEATHER SERVICE DENVER/BOULDER CO
300 AM MDT SAT MAY 28 2016

NOTE: "FAIR" INDICATES FEW OR NO CLOUDS BELOW 12000 FEET WITH NO
SIGNIFICANT WEATHER AND/OR OBSTRUCTIONS TO VISIBILITY.

COZ001>005-013-030-031-281000-
...NORTHWEST COLORADO...

CITY           SKY/WX    TMP DP  RH WIND       PRES   REMARKS
CRAIG          CLOUDY    43  40  89 CALM      30.06S
HAYDEN         CLOUDY    41  36  81 E7        30.06F
MEEKER         FAIR      38  34  85 CALM      30.07S
MOUNT WERNER   NOT AVBL
STEAMBOAT SPGS CLOUDY    37  36  94 CALM      30.08S
WALDEN         FAIR      34  32  93 SE5       30.11S WCI  30
$$

COZ006>008-011-281000-
...WEST CENTRAL VALLEYS...

CITY           SKY/WX    TMP DP  RH WIND       PRES   REMARKS
GRAND JUNCTION FAIR      47  42  83 CALM      30.00S
MONTROSE       FAIR      45  34  65 SE9       30.06S
EAGLE          FAIR      36  36 100 SE3       30.12S
RIFLE          FAIR      39  34  82 E6        30.05S
DELTA          FAIR      48  40  73 E7        30.04R
NUCLA          FAIR      46  32  57 SE3       30.07R
$$

COZ017>023-064>068-281000-
...SOUTHWEST COLORADO...

CITY           SKY/WX    TMP DP  RH WIND       PRES   REMARKS
DURANGO        FAIR      38  31  76 N10       30.07S
CORTEZ         FAIR      39  31  72 CALM      30.05R
PAGOSA SPRINGS FAIR      34  34  99 CALM      30.11S
TELLURIDE      FAIR      36  31  82 SE7       30.18S
WOLF CREEK PAS FAIR      30  21  69 W10       30.28S WCI  21
$$

COZ009-010-012-014-032>034-037-058>063-281000-
...CENTRAL COLORADO...

CITY           SKY/WX    TMP DP  RH WIND       PRES   REMARKS
ASPEN          FAIR      33  29  85 W5        30.10S WCI  29
BUENA VISTA    FAIR      31  27  86 CALM      30.10S
COPPER MTN     NOT AVBL
BERTHOUD PASS  CLOUDY    23  14  68 N23G31    30.20S WCI   7
COTTONWOOD PAS FAIR      37  28  70 NW6       30.14F
GUNNISON       FAIR      34  28  80 CALM      30.16R
KREMMLING      FAIR      34  32  93 CALM      30.12S
LEADVILLE      FAIR      26  23  88 E6        30.15S WCI  19
MONARCH PASS   FAIR      27  25  93 W23       30.31S FOG     WCI  12
SALIDA         FAIR      39  34  82 NW7       30.15F
SUNLIGHT       FAIR      34  32  93 CALM      30.23S
WILKERSON PASS FAIR      30  27  86 NW12G17   30.19S WCI  21
$$

COZ069>075-281000-
...SAN LUIS VALLEY/SANGRE DE CRISTO MOUNTAINS...

CITY           SKY/WX    TMP DP  RH WIND       PRES   REMARKS
ALAMOSA        FAIR      35  34  96 SW3       30.10R
LA VETA PASS   FAIR      32  30  93 S10G16    30.14S WCI  24
SAGUACHE       FAIR      36  32  87 NW8       30.11S
$$

COZ035-036-038>040-281000-
...NORTHERN COLORADO FRONT RANGE...

CITY           SKY/WX    TMP DP  RH WIND       PRES   REMARKS
DENVER INTL AP FAIR      45  39  79 SW13      29.96R
DMNS CITY PARK   N/A     45  39  79 S2G9      29.97R
AURORA         PTCLDY    42  40  91 S6        29.97R
FRONT RANGE AP NOT AVBL
ERIE MUNI ARPT FAIR      41  38  92 CALM      29.95R
BOULDER MUN AP FAIR      45  41  87 NE3       29.96R
CENTENNIAL     FAIR      43  37  79 E5        29.97R
BROOMFIELD     FAIR      45  39  81 CALM      29.97R
FORT COLLINS   FAIR      45  39  81 NE5       29.95S
LONGMONT       FAIR      41  38  89 SW3       29.97R
$$

COZ041-046-047-076>085-087-088-281000-
...PIKES PEAK/PALMER DIVIDE AND SOUTHERN FOOTHILLS...

CITY           SKY/WX    TMP DP  RH WIND       PRES   REMARKS
COLO. SPRINGS  FAIR      41  35  79 NE8       29.99S
A. F. ACADEMY  FAIR      43  34  70 NW1       29.99S
SCHRIEVER AFB  NOT AVBL
ELLICOTT       FAIR     N/A N/A N/A CALM      29.97S
FALCON         FAIR      42  34  73 NW7       30.01R
FORT CARSON    FAIR      42  36  81 NW10      29.96S
LIMON          FAIR      38  37  97 CALM      29.97S
MONUMENT HILL  FAIR      36  32  87 SW8       30.03R
TRINIDAD       FAIR      44  38  79 W9        29.98S
$$

COZ042>045-048>051-090-091-281000-
...NORTHEAST COLORADO...

CITY           SKY/WX    TMP DP  RH WIND       PRES   REMARKS
GREELEY ARPT   FAIR      41  37  87 NW5       29.95R
AKRON          FAIR      42  39  89 NW7       29.93S
BURLINGTON     FAIR      46  42  86 NW10      29.92S
WRAY           FAIR      46  46 100 NW7       29.90R
STERLING       FAIR      41  41 100 W6        29.91S
HOLYOKE        MOCLDY    52  46  82 NW7       29.90R
FORT MORGAN    FAIR      43  41  92 W5        29.95R
$$

COZ086-089-092>099-281000-
...SOUTHEAST COLORADO...

CITY           SKY/WX    TMP DP  RH WIND       PRES   REMARKS
PUEBLO         FAIR      48  43  82 NW6       29.93F
LA JUNTA       FAIR      49  45  86 SW7       29.94R
LAMAR          FAIR      45  43  93 SW8       29.91R
SPRINGFIELD      N/A     42  39  89 W10       29.93R
$$



USA.gov is the U.S. government's official web portal to all federal, state and local government web resources and services.